Tracking 28096 objects as of 29-Sep-2023
HD Live streaming from Space Station
objects crossing your sky now

STARLINK-30074

Track STARLINK-30074 now!
10-day predictions
STARLINK-30074 is classified as:


NORAD ID: 57508
Int'l Code: 2023-113P
Perigee: 565.5 km
Apogee: 567.0 km
Inclination: 43.0 °
Period: 95.8 minutes
Semi major axis: 6937 km
RCS: Unknown
Launch date: August 7, 2023
Source: United States (US)
Launch site: AIR FORCE EASTERN TEST RANGE (AFETR)
Your satellite tracking list
Your tracking list is empty




NASA's NSSDC Master Catalog

Two Line Element Set (TLE):
1 57508U 23113P   23271.83353938  .00008011  00000-0  60739-3 0  9990
2 57508  42.9996 188.6735 0001095 265.4759  94.5958 15.02538711  9144
Source of the keplerian elements: AFSPC